Home > Weather > Kingstown > Past weeks

Flag for Saint Vincent and Grenadines Past Weather in Kingstown, Saint Vincent and Grenadines — Yesterday and Last 2 Weeks

Now
86 °F

Scattered clouds.


Feels Like: 99 °F
Forecast: N/A
Wind: 14 mph from Southeast

Location: Arnos Vale

Current Time: Aug 25, 2016 at 6:16:52 PM

Latest Report: Aug 25, 2016 at 5:00 PM


Visibility: N/A

Pressure: 29.89 "Hg

Humidity: 79%

Dew Point: 79 °F

Location of KingstownLocation

Past Weather in Kingstown — Graph

°F

Kingstown Temperature Yesterday

Maximum temperature yesterday: 88 °F (at 10:00 AM)
Minimum temperature yesterday: 79 °F (at 12:00 AM)
Average temperature yesterday: 85 °F

High & Low Weather Summary for the Past Weeks

 TemperatureHumidityPressure
High90 °F (Aug 14, 1:00 PM)94% (Aug 11, 6:00 PM)30.04 "Hg (Aug 11, 6:00 PM)
Low79 °F (Aug 11, 3:00 PM)59% (Aug 24, 3:00 PM)29.89 "Hg (Aug 20, 5:00 PM)
Average85 °F74%29.97 "Hg
* Reported Aug 10 5:00 PM — Aug 25 5:00 PM, Kingstown, Weather by CustomWeather, © 2016

Note: Actual official high and low records may vary slightly from our data, if they occured in-between our weather recording intervals... More about our weather records

Advertising

Kingstown Weather History for the Previous 24 Hours

Scroll right to see more
 ConditionsComfort  
Time TempWeatherWind HumidityBarometerVisibility
5:00 PM
Thu, Aug 25
86 °FScattered clouds.14 mph79%29.89 "HgN/A
4:00 PM88 °FScattered clouds.14 mph79%29.89 "HgN/A
3:00 PM88 °FScattered clouds.14 mph75%29.89 "HgN/A
2:00 PM88 °FScattered clouds.14 mph79%29.92 "HgN/A
1:00 PM88 °FScattered clouds.14 mph75%29.92 "HgN/A
12:00 PM88 °FScattered clouds.13 mph70%29.95 "HgN/A
11:00 AM88 °FScattered clouds.14 mph70%29.98 "HgN/A
10:00 AM86 °FScattered clouds.13 mph79%29.98 "HgN/A
9:00 AM86 °FPartly sunny.13 mph79%29.98 "HgN/A
8:00 AM84 °FPassing clouds.12 mph84%29.98 "HgN/A
7:00 AM81 °FSprinkles. Partly sunny.10 mph89%29.95 "HgN/A
6:00 AM81 °FScattered showers. Scattered clouds.8 mph89%29.95 "Hg5 mi
11:00 PM
Wed, Aug 24
81 °FSprinkles. Passing clouds.7 mph84%29.98 "HgN/A
10:00 PM82 °FPassing clouds.3 mph84%29.98 "HgN/A
9:00 PM82 °FPassing clouds.5 mph79%29.95 "HgN/A
8:00 PM82 °FPassing clouds.3 mph79%29.95 "HgN/A
7:00 PM84 °FPassing clouds.No wind74%29.92 "HgN/A
6:00 PM86 °FPassing clouds.10 mph70%29.92 "HgN/A
Weather by CustomWeather, © 2016

See weather overviewHow to use our weather pages